sciencechannel.com alexa rank chart, sciencechannel.com alexa rank daily changes

sciencechannel.com alexa rank chart, sciencechannel.com alexa rank daily changes

sciencechannel.com
Actual rank:
77 764

RANK HISTORY

Date Rank Diff
2018/01/23 77 764 +544
2018/01/22 77 220 -471
2018/01/21 77 691 -269
2018/01/20 77 960 +171
2018/01/19 77 789 +1 867
2018/01/18 75 922 -293
2018/01/17 76 215 +1 451
2018/01/16 74 764 +2 408
2018/01/15 72 356 +820
2018/01/14 71 536 +2 233
2018/01/13 69 303 +479
2018/01/12 68 824 -445
2018/01/11 69 269 +613
2018/01/10 68 656 -1 360
2018/01/09 70 016 -352
2018/01/08 70 368 -822
2018/01/07 71 190 -1 215
2018/01/06 72 405 -770
2018/01/05 73 175 +728
2018/01/04 72 447 -557
2018/01/03 73 004 -1 115
2018/01/02 74 119 -956
2018/01/01 75 075 -1 196
2017/12/31 76 271 +156
2017/12/30 76 115 -550
2017/12/29 76 665 -1 256
2017/12/28 77 921 -799
2017/12/27 78 720 -967
2017/12/26 79 687 -1
2017/12/25 79 688 +873
2017/12/24 78 815 -1 265
2017/12/23 80 080 +78
2017/12/22 80 002 -640
2017/12/21 80 642 -43
2017/12/20 80 685 -541
2017/12/19 81 226 -1 188
2017/12/18 82 414 +1 114
2017/12/17 81 300 -941
2017/12/16 82 241 -2 064
2017/12/15 84 305 -3 542
2017/12/14 87 847 -3 754
2017/12/13 91 601 -1 079
2017/12/12 92 680 -330
2017/12/11 93 010 -330
2017/12/10 93 340 +2 174
2017/12/09 91 166 +788
2017/12/08 90 378 +766
2017/12/07 89 612 +1 442
2017/12/06 88 170 +2 608
2017/12/05 85 562 -50
2017/12/04 85 612 -1 188
2017/12/03 86 800 +469
2017/12/02 86 331 +263
2017/12/01 86 068 -53
2017/11/30 86 121 +575
2017/11/29 85 546 +970
2017/11/28 84 576 +823
2017/11/27 83 753 +589
2017/11/26 83 164 -1 640
2017/11/25 84 804 -1 138
2017/11/24 85 942

WIDGET FOR YOUR SITE

DOMAINS WITH THE NEAREST RANK

Domain Rank
durango.wiki 77 759
glas-slavonije.hr 77 760
playmax.mx 77 761
chillax.ws 77 762
atozseithigal.in 77 763
sciencechannel.com 77 764
89.com 77 765
duniailkom.com 77 766
zph.com.cn 77 767
babycenter.fr 77 768
hdsentinel.com 77 769

DOMAINS WITH THE NEAREST RANK BY TLD .com

Domain Rank
classic-country-song-lyrics.com 77 747
morpace.com 77 751
bananastore.com 77 756
baanlaesuan.com 77 757
world-geography-games.com 77 758
sciencechannel.com 77 764
89.com 77 765
duniailkom.com 77 766
hdsentinel.com 77 769
myntassets.com 77 770
myteachingstation.com 77 771